EW4120 Weather Reports


Display with metric or nautical units.
time (UTC)temp
F
wind
direction
speed
MPH
gust
MPH
rain 1hr
in
rain 24hr
in
rain mn
in
humidity
%
barometer
mb
20260906072537 68 0.0 0.0 0.00 0.06 0.00 99 1012.3
20260906071517 68 0.0 0.0 0.00 0.06 0.00 99 1012.4
20260906070517 69 0.0 0.0 0.00 0.06 0.00 99 1012.6
20260906065517 69 0.0 0.0 0.00 0.06 0.00 99 1013.0
20260906064517 69 0.0 0.0 0.00 0.06 0.00 99 1013.1
20260906063537 69 0.0 0.0 0.00 0.06 0.00 99 1013.0
20260906062557 69 0.0 0.0 0.00 0.06 0.00 98 1013.3
20260906061517 69 0.0 0.0 0.00 0.06 0.00 98 1013.4
20260906060537 69 0.0 1.0 0.00 0.06 0.00 98 1013.4
20260906055537 69 0.0 0.0 0.00 0.06 0.00 98 1013.5
20260906054517 69 0.0 0.0 0.00 0.06 0.00 99 1013.5
20260906053617 69 0.0 1.0 0.00 0.06 0.00 98 1013.6
20260906052537 70 0.0 0.0 0.00 0.06 0.00 98 1013.5
20260906051517 70 0.0 0.0 0.00 0.06 0.00 98 1013.7
20260906050517 70 0.0 0.0 0.00 0.06 0.00 98 1013.6
20260906045517 70 0.0 0.0 0.00 0.06 0.00 98 1013.6
20260906044517 70 0.0 0.0 0.00 0.06 0.00 98 1013.8
20260906043537 70 0.0 1.0 0.00 0.06 0.00 98 1013.9
20260906042517 70 0.0 0.0 0.00 0.06 0.00 98 1014.0
20260906041517 70 0.0 0.0 0.00 0.06 0.00 98 1014.0
20260906040537 71 0.0 0.0 0.00 0.06 0.00 98 1014.0
20260906035515 71 0.0 0.0 0.00 0.06 0.06 98 1014.0
20260906034555 71 0.0 0.0 0.00 0.06 0.06 98 1014.1
20260906033515 70 0.0 1.0 0.00 0.06 0.06 98 1014.0
20260906032515 70 0.0 0.0 0.00 0.06 0.06 98 1013.8
20260906031555 70 0.0 0.0 0.00 0.06 0.06 98 1013.7
20260906030555 70 0.0 0.0 0.00 0.06 0.06 98 1013.6
20260906025557 71 0.0 0.0 0.00 0.06 0.06 97 1013.4
20260906024517 70 0.0 0.0 0.00 0.06 0.06 98 1013.4
20260906023517 70 0.0 0.0 0.00 0.06 0.06 97 1013.3
20260906022557 70 0.0 0.0 0.00 0.06 0.06 97 1013.2
20260906021537 70 0.0 0.0 0.00 0.06 0.06 97 1013.1
20260906020537 71 0.0 0.0 0.00 0.06 0.06 97 1013.2
20260906015537 71 0.0 0.0 0.00 0.06 0.06 96 1013.1
20260906014537 71 0.0 0.0 0.00 0.06 0.06 96 1013.1
20260906013537 71 0.0 0.0 0.00 0.06 0.06 96 1013.1
20260906012517 71 0.0 0.0 0.00 0.06 0.06 96 1012.7
20260906010517 72 0.0 0.0 0.00 0.06 0.06 95 1012.8
20260906005517 72 0.0 0.0 0.00 0.06 0.06 94 1012.7
20260906004517 72 0.0 0.0 0.00 0.06 0.06 94 1012.8
20260906003517 73 0.0 0.0 0.00 0.06 0.06 93 1012.6
20260906002517 73 0.0 0.0 0.00 0.06 0.06 93 1012.6
20260906001537 74 0.0 0.0 0.00 0.06 0.06 91 1012.5
20260906000557 75 0.0 0.0 0.01 0.06 0.06 91 1012.4
20260905235517 75 0.0 0.0 0.01 0.06 0.06 90 1012.4
20260905234517 76 0.0 0.0 0.01 0.06 0.06 89 1012.1
20260905233517 77 0.0 0.0 0.01 0.06 0.06 87 1012.1
20260905232537 78 0.0 0.0 0.01 0.06 0.06 84 1012.1
20260905231517 79 0.0 0.0 0.01 0.06 0.06 82 1012.0
20260905230537 80 0.0 0.0 0.00 0.05 0.05 80 1011.9
20260905225517 81 0.0 0.0 0.00 0.05 0.05 81 1012.1
20260905224517 81 0.0 0.0 0.00 0.05 0.05 81 1012.2
20260905223517 81 0.0 0.0 0.00 0.05 0.05 83 1012.2
20260905222537 80 0.0 1.0 0.00 0.05 0.05 84 1012.2
20260905221516 80 0.0 2.0 0.00 0.05 0.05 83 1012.4
20260905220537 79 0.0 0.0 0.00 0.05 0.05 86 1012.4
20260905215516 79 0.0 1.0 0.00 0.05 0.05 85 1012.6
20260905214522 79 0.0 0.0 0.00 0.05 0.05 89 1012.7
20260905213516 78 0.0 0.0 0.00 0.05 0.05 91 1012.7
20260905212657 78 0.0 1.0 0.00 0.05 0.05 90 1012.7
20260905211536 79 0.0 0.0 0.00 0.05 0.05 90 1012.9
20260905210516 79 0.0 0.0 0.00 0.05 0.05 92 1013.0
20260905205516 78 0.0 1.0 0.00 0.05 0.05 94 1013.1
20260905204617 76 0.0 2.0 0.00 0.05 0.05 97 1012.8
20260905203537 75 0.0 1.0 0.01 0.05 0.05 97 1012.4
20260905202516 75 0.0 1.0 0.01 0.05 0.05 98 1012.0
20260905201517 74 0.0 0.0 0.01 0.05 0.05 97 1012.1
20260905200516 74 0.0 0.0 0.01 0.05 0.05 97 1012.3
20260905195516 74 0.0 2.0 0.01 0.05 0.05 97 1012.8
20260905194536 74 0.0 0.0 0.01 0.05 0.05 97 1012.8
20260905193536 73 0.0 1.0 0.00 0.05 0.04 96 1012.9
20260905192536 74 0.0 2.0 0.00 0.05 0.04 96 1012.7
20260905191516 73 0.0 0.0 0.00 0.05 0.04 95 1012.7
20260905190516 73 0.0 1.0 0.00 0.05 0.04 94 1012.5
20260905185536 74 0.0 1.0 0.00 0.05 0.04 92 1012.5
20260905184516 76 0.0 3.0 0.00 0.05 0.04 85 1012.3
20260905183516 83 45 6.0 14.0 0.00 0.05 0.04 71 1013.4
20260905182517 91 45 1.0 6.0 0.00 0.05 0.04 63 1012.7
20260905181516 92 0 1.0 4.0 0.00 0.05 0.04 63 1013.0
20260905180516 93 68 1.0 5.0 0.01 0.05 0.04 61 1013.2
20260905175616 93 45 2.0 6.0 0.01 0.05 0.04 61 1013.4
20260905174536 94 45 2.0 5.0 0.01 0.05 0.04 63 1013.3
20260905173516 93 23 3.0 9.0 0.01 0.05 0.04 62 1013.4
20260905172516 93 23 1.0 4.0 0.01 0.05 0.04 63 1013.9
20260905171556 93 45 1.0 3.0 0.01 0.05 0.04 64 1014.2
20260905170616 93 45 1.0 4.0 0.00 0.04 0.03 64 1014.4
20260905165536 92 45 1.0 5.0 0.00 0.04 0.03 67 1014.5
20260905164516 91 23 1.0 4.0 0.00 0.04 0.03 67 1014.6
20260905163516 91 23 1.0 8.0 0.00 0.04 0.03 69 1014.6
20260905162536 89 45 1.0 5.0 0.00 0.04 0.03 75 1014.6
20260905161516 89 45 1.0 4.0 0.00 0.04 0.03 73 1014.7
20260905160536 88 0.0 4.0 0.01 0.04 0.03 77 1014.8
20260905155616 87 248 1.0 4.0 0.01 0.04 0.03 77 1014.9
20260905154516 87 0.0 2.0 0.01 0.04 0.03 78 1014.9
20260905153536 86 23 1.0 3.0 0.01 0.04 0.03 78 1015.0
20260905152636 85 0.0 3.0 0.01 0.04 0.03 83 1014.9
20260905151516 84 0.0 1.0 0.01 0.04 0.03 86 1015.0
20260905150636 84 0.0 2.0 0.00 0.03 0.02 85 1015.1
20260905145536 83 0.0 2.0 0.00 0.03 0.02 87 1015.2
20260905144656 82 0.0 3.0 0.00 0.03 0.02 90 1015.2
20260905143516 81 0.0 1.0 0.00 0.03 0.02 93 1015.1
20260905142516 79 0.0 2.0 0.00 0.03 0.02 97 1015.0
20260905141556 78 0.0 3.0 0.00 0.03 0.02 97 1014.9
20260905140516 77 0.0 2.0 0.00 0.03 0.02 99 1014.9
20260905135516 76 0.0 2.0 0.00 0.03 0.02 100 1014.9
20260905134516 77 0.0 2.0 0.00 0.03 0.02 100 1014.9
20260905133556 76 0.0 1.0 0.00 0.03 0.02 100 1014.8
20260905132556 75 0.0 0.0 0.00 0.03 0.02 100 1014.7
20260905131556 75 0.0 0.0 0.00 0.03 0.02 100 1014.9
20260905130516 74 0.0 0.0 0.01 0.03 0.02 100 1015.0
20260905125516 74 0.0 0.0 0.01 0.03 0.02 100 1015.1
20260905123556 72 0.0 0.0 0.01 0.04 0.02 100 1015.1
20260905122515 72 0.0 0.0 0.01 0.04 0.02 100 1015.1
20260905121637 71 0.0 0.0 0.01 0.04 0.02 100 1015.2
20260905120515 70 0.0 2.0 0.00 0.03 0.01 99 1015.0
20260905115515 70 0.0 0.0 0.00 0.03 0.01 99 1015.1
20260905114515 70 0.0 0.0 0.00 0.03 0.01 99 1014.8
20260905113515 69 0.0 0.0 0.00 0.03 0.01 99 1014.6
20260905112536 69 0.0 0.0 0.00 0.03 0.01 99 1014.6
20260905111536 69 0.0 0.0 0.00 0.03 0.01 99 1014.4
20260905110515 69 0.0 0.0 0.00 0.03 0.01 99 1014.4
20260905104616 69 0.0 0.0 0.00 0.03 0.01 99 1014.4
20260905103515 69 0.0 0.0 0.00 0.03 0.01 99 1014.4
20260905102636 70 0.0 0.0 0.00 0.03 0.01 99 1014.4
20260905101515 70 0.0 0.0 0.00 0.03 0.01 99 1014.3
20260905100515 70 0.0 0.0 0.00 0.03 0.01 99 1014.3
20260905095535 70 0.0 0.0 0.00 0.03 0.01 98 1014.3
20260905094555 70 0.0 0.0 0.00 0.03 0.01 99 1014.3
20260905093515 70 0.0 0.0 0.00 0.03 0.01 99 1014.2
20260905092555 71 0.0 0.0 0.01 0.03 0.01 98 1014.3
20260905091535 71 0.0 0.0 0.01 0.03 0.01 98 1014.4
20260905090515 71 0.0 0.0 0.01 0.03 0.01 98 1014.4
20260905085555 71 0.0 0.0 0.01 0.03 0.01 98 1014.5
20260905084535 71 0.0 0.0 0.01 0.03 0.01 98 1014.5
20260905083515 71 0.0 0.0 0.01 0.03 0.01 98 1014.7
20260905082636 72 0.0 0.0 0.00 0.02 0.00 98 1014.8
20260905081515 72 0.0 0.0 0.00 0.02 0.00 98 1014.9
20260905080517 72 0.0 1.0 0.00 0.02 0.00 98 1014.9
20260905075517 72 0.0 1.0 0.00 0.02 0.00 98 1015.0
20260905074537 72 0.0 0.0 0.00 0.02 0.00 97 1015.1
20260905073617 73 0.0 1.0 0.00 0.02 0.00 97 1014.9